| time (UTC) | temp F | wind direction | speed MPH | gust MPH | rain 1hr in | rain 24hr in | rain mn in | humidity % | barometer mb |
| 20260903004541 | 67 | 355 | 0.0 | 1.0 | 0.00 | 0.00 | 0.00 | 86 | 1012.9 |
| 20260903003037 | 68 | 355 | 1.0 | 2.0 | 0.00 | 0.00 | 0.00 | 85 | 1012.8 |
| 20260903001553 | 70 | 355 | 0.0 | 0.0 | 0.00 | 0.00 | 0.00 | 84 | 1012.7 |
| 20260903000042 | 71 | 355 | 0.0 | 0.0 | 0.00 | 0.00 | 0.00 | 79 | 1012.6 |
| 20260902234537 | 73 | 355 | 0.0 | 0.0 | 0.00 | 0.00 | 0.00 | 74 | 1012.6 |
| 20260902233036 | 76 | 355 | 0.0 | 0.0 | 0.00 | 0.00 | 0.00 | 68 | 1012.7 |
| 20260902231538 | 75 | 355 | 0.0 | 1.0 | 0.00 | 0.00 | 0.00 | 68 | 1012.6 |
| 20260902230034 | 75 | 302 | 0.0 | 0.0 | 0.00 | 0.00 | 0.00 | 67 | 1012.5 |
| 20260902224533 | 74 | 10 | 0.0 | 0.0 | 0.00 | 0.00 | 0.00 | 72 | 1012.5 |
| 20260902223032 | 75 | 5 | 0.0 | 4.0 | 0.00 | 0.00 | 0.00 | 68 | 1012.6 |
| 20260902221549 | 77 | 12 | 0.0 | 3.0 | 0.00 | 0.00 | 0.00 | 66 | 1012.5 |
| 20260902220032 | 78 | 5 | 1.0 | 3.0 | 0.00 | 0.00 | 0.00 | 65 | 1012.5 |
| 20260902214533 | 78 | 351 | 0.0 | 7.0 | 0.00 | 0.00 | 0.00 | 66 | 1012.4 |
| 20260902213033 | 79 | 360 | 1.0 | 5.0 | 0.00 | 0.00 | 0.00 | 63 | 1012.3 |
| 20260902211528 | 80 | 344 | 0.0 | 5.0 | 0.00 | 0.00 | 0.00 | 65 | 1012.3 |
| 20260902210031 | 80 | 303 | 1.0 | 4.0 | 0.00 | 0.00 | 0.00 | 64 | 1012.3 |
| 20260902204527 | 80 | 11 | 2.0 | 5.0 | 0.00 | 0.00 | 0.00 | 60 | 1012.2 |
| 20260902203030 | 80 | 17 | 1.0 | 4.0 | 0.00 | 0.00 | 0.00 | 62 | 1012.2 |
| 20260902201536 | 80 | 254 | 1.0 | 4.0 | 0.00 | 0.00 | 0.00 | 58 | 1012.2 |
| 20260902200027 | 80 | 315 | 2.0 | 5.0 | 0.00 | 0.00 | 0.00 | 63 | 1012.3 |
| 20260902194547 | 80 | 271 | 1.0 | 6.0 | 0.00 | 0.00 | 0.00 | 64 | 1012.4 |
| 20260902193024 | 80 | 190 | 0.0 | 5.0 | 0.00 | 0.00 | 0.00 | 64 | 1012.6 |
| 20260902191523 | 80 | 355 | 2.0 | 7.0 | 0.00 | 0.00 | 0.00 | 58 | 1012.6 |
| 20260902190019 | 79 | 303 | 3.0 | 9.0 | 0.00 | 0.00 | 0.00 | 64 | 1012.6 |
| 20260902184520 | 79 | 333 | 0.0 | 5.0 | 0.00 | 0.00 | 0.00 | 67 | 1012.3 |
| 20260902183019 | 79 | 350 | 0.0 | 5.0 | 0.00 | 0.00 | 0.00 | 69 | 1012.4 |
| 20260902181518 | 79 | 327 | 0.0 | 2.0 | 0.00 | 0.00 | 0.00 | 68 | 1012.4 |
| 20260902180015 | 79 | 249 | 2.0 | 5.0 | 0.00 | 0.00 | 0.00 | 64 | 1012.6 |
| 20260902174514 | 78 | 221 | 1.0 | 4.0 | 0.00 | 0.00 | 0.00 | 64 | 1012.6 |
| 20260902173015 | 78 | 355 | 1.0 | 4.0 | 0.00 | 0.00 | 0.00 | 66 | 1012.4 |
| 20260902171514 | 79 | 276 | 1.0 | 4.0 | 0.00 | 0.00 | 0.00 | 64 | 1012.4 |
| 20260902170014 | 79 | 126 | 0.0 | 6.0 | 0.00 | 0.00 | 0.00 | 66 | 1012.4 |
| 20260902164512 | 78 | 355 | 0.0 | 7.0 | 0.00 | 0.00 | 0.00 | 67 | 1012.6 |
| 20260902163008 | 78 | 266 | 0.0 | 4.0 | 0.00 | 0.00 | 0.00 | 68 | 1012.7 |
| 20260902161506 | 77 | 221 | 1.0 | 7.0 | 0.00 | 0.00 | 0.00 | 65 | 1012.7 |
| 20260902160004 | 77 | 200 | 1.0 | 5.0 | 0.00 | 0.00 | 0.00 | 67 | 1012.7 |
| 20260902154501 | 76 | 215 | 1.0 | 5.0 | 0.00 | 0.00 | 0.00 | 69 | 1012.7 |
| 20260902153057 | 76 | 267 | 0.0 | 3.0 | 0.00 | 0.00 | 0.00 | 70 | 1012.8 |
| 20260902151555 | 75 | 66 | 0.0 | 3.0 | 0.00 | 0.00 | 0.00 | 72 | 1012.9 |
| 20260902150050 | 74 | 275 | 1.0 | 6.0 | 0.00 | 0.00 | 0.00 | 72 | 1013.2 |
| 20260902144548 | 72 | 205 | 0.0 | 1.0 | 0.00 | 0.00 | 0.00 | 79 | 1013.0 |
| 20260902143043 | 71 | 196 | 0.0 | 0.0 | 0.00 | 0.00 | 0.00 | 81 | 1012.8 |
| 20260902141539 | 70 | 173 | 0.0 | 3.0 | 0.00 | 0.00 | 0.00 | 84 | 1012.9 |
| 20260902140037 | 68 | 127 | 0.0 | 0.0 | 0.00 | 0.00 | 0.00 | 86 | 1013.0 |
| 20260902134530 | 66 | 144 | 0.0 | 0.0 | 0.00 | 0.00 | 0.00 | 89 | 1012.9 |
| 20260902133028 | 65 | 144 | 0.0 | 0.0 | 0.00 | 0.00 | 0.00 | 89 | 1013.0 |
| 20260902131525 | 64 | 144 | 0.0 | 0.0 | 0.00 | 0.00 | 0.00 | 91 | 1012.8 |
| 20260902130030 | 64 | 144 | 0.0 | 0.0 | 0.00 | 0.00 | 0.00 | 92 | 1012.7 |
| 20260902124521 | 63 | 144 | 0.0 | 0.0 | 0.00 | 0.00 | 0.00 | 93 | 1012.9 |
| 20260902123028 | 62 | 144 | 0.0 | 0.0 | 0.00 | 0.00 | 0.00 | 94 | 1012.8 |
| 20260902121520 | 62 | 144 | 0.0 | 0.0 | 0.00 | 0.00 | 0.00 | 93 | 1012.8 |
| 20260902120019 | 62 | 144 | 0.0 | 0.0 | 0.00 | 0.00 | 0.00 | 93 | 1013.0 |
| 20260902114524 | 62 | 144 | 0.0 | 0.0 | 0.00 | 0.00 | 0.00 | 93 | 1013.1 |
| 20260902113018 | 62 | 144 | 0.0 | 0.0 | 0.00 | 0.00 | 0.00 | 93 | 1013.1 |
| 20260902111521 | 62 | 144 | 0.0 | 0.0 | 0.00 | 0.00 | 0.00 | 92 | 1013.2 |
| 20260902110018 | 62 | 141 | 0.0 | 0.0 | 0.00 | 0.00 | 0.00 | 93 | 1013.2 |
| 20260902104519 | 62 | 142 | 0.0 | 0.0 | 0.00 | 0.00 | 0.00 | 94 | 1012.9 |
| 20260902103014 | 62 | 142 | 0.0 | 0.0 | 0.00 | 0.00 | 0.00 | 92 | 1012.7 |
| 20260902101513 | 62 | 142 | 0.0 | 0.0 | 0.00 | 0.00 | 0.00 | 92 | 1012.8 |
| 20260902100012 | 62 | 146 | 0.0 | 0.0 | 0.00 | 0.00 | 0.00 | 92 | 1012.8 |
| 20260902094509 | 62 | 186 | 0.0 | 0.0 | 0.00 | 0.00 | 0.00 | 92 | 1012.7 |
| 20260902093012 | 62 | 186 | 0.0 | 0.0 | 0.00 | 0.00 | 0.00 | 92 | 1012.5 |
| 20260902091509 | 62 | 186 | 0.0 | 0.0 | 0.00 | 0.00 | 0.00 | 91 | 1012.2 |
| 20260902090008 | 63 | 186 | 0.0 | 0.0 | 0.00 | 0.00 | 0.00 | 90 | 1012.3 |
| 20260902084507 | 62 | 186 | 0.0 | 2.0 | 0.00 | 0.00 | 0.00 | 91 | 1012.4 |
| 20260902083007 | 62 | 282 | 0.0 | 0.0 | 0.00 | 0.00 | 0.00 | 92 | 1012.2 |
| 20260902081507 | 62 | 282 | 0.0 | 0.0 | 0.00 | 0.00 | 0.00 | 91 | 1012.2 |
| 20260902080006 | 62 | 282 | 0.0 | 0.0 | 0.00 | 0.00 | 0.00 | 91 | 1012.3 |
| 20260902074506 | 62 | 282 | 0.0 | 0.0 | 0.00 | 0.00 | 0.00 | 90 | 1012.1 |
| 20260902073014 | 63 | 282 | 0.0 | 0.0 | 0.00 | 0.00 | 0.00 | 89 | 1012.2 |
| 20260902071505 | 63 | 282 | 0.0 | 0.0 | 0.00 | 0.00 | 0.00 | 88 | 1012.2 |
| 20260902070006 | 63 | 282 | 0.0 | 0.0 | 0.00 | 0.00 | 0.00 | 89 | 1012.5 |
| 20260902064502 | 62 | 274 | 0.0 | 0.0 | 0.00 | 0.00 | 0.00 | 89 | 1012.5 |
| 20260902063004 | 62 | 265 | 0.0 | 0.0 | 0.00 | 0.00 | 0.00 | 89 | 1012.6 |
| 20260902061601 | 62 | 265 | 0.0 | 0.0 | 0.00 | 0.00 | 0.00 | 89 | 1012.5 |
| 20260902060124 | 62 | 265 | 0.0 | 0.0 | 0.00 | 0.00 | 0.00 | 88 | 1012.3 |
| 20260902054558 | 62 | 265 | 0.0 | 0.0 | 0.00 | 0.00 | 0.00 | 89 | 1012.2 |
| 20260902053057 | 62 | 265 | 0.0 | 0.0 | 0.00 | 0.00 | 0.00 | 90 | 1012.4 |
| 20260902051556 | 62 | 265 | 0.0 | 0.0 | 0.00 | 0.00 | 0.00 | 92 | 1012.4 |
| 20260902050055 | 62 | 265 | 0.0 | 0.0 | 0.00 | 0.00 | 0.00 | 91 | 1012.3 |
| 20260902044553 | 62 | 265 | 0.0 | 0.0 | 0.00 | 0.00 | 0.00 | 90 | 1012.1 |
| 20260902043055 | 62 | 265 | 0.0 | 0.0 | 0.00 | 0.00 | 0.00 | 90 | 1012.0 |
| 20260902041605 | 62 | 265 | 0.0 | 0.0 | 0.00 | 0.00 | 0.00 | 91 | 1012.0 |
| 20260902040048 | 61 | 265 | 0.0 | 0.0 | 0.00 | 0.00 | 0.00 | 92 | 1012.1 |
| 20260902034550 | 61 | 265 | 0.0 | 0.0 | 0.00 | 0.00 | 0.00 | 92 | 1012.1 |
| 20260902033054 | 61 | 265 | 0.0 | 0.0 | 0.00 | 0.00 | 0.00 | 93 | 1012.0 |
| 20260902031547 | 61 | 265 | 0.0 | 0.0 | 0.00 | 0.00 | 0.00 | 93 | 1012.0 |
| 20260902030048 | 61 | 265 | 0.0 | 0.0 | 0.00 | 0.00 | 0.00 | 92 | 1011.9 |
| 20260902024546 | 62 | 239 | 0.0 | 0.0 | 0.00 | 0.00 | 0.00 | 92 | 1011.8 |
| 20260902023048 | 62 | 239 | 0.0 | 0.0 | 0.00 | 0.00 | 0.00 | 92 | 1011.8 |
| 20260902021550 | 62 | 239 | 0.0 | 0.0 | 0.00 | 0.00 | 0.00 | 92 | 1011.7 |
| 20260902020045 | 63 | 239 | 0.0 | 0.0 | 0.00 | 0.00 | 0.00 | 91 | 1011.5 |
| 20260902014549 | 64 | 239 | 0.0 | 0.0 | 0.00 | 0.00 | 0.00 | 90 | 1011.5 |
| 20260902013044 | 65 | 296 | 0.0 | 0.0 | 0.00 | 0.00 | 0.00 | 89 | 1011.4 |
| 20260902011543 | 66 | 307 | 0.0 | 0.0 | 0.00 | 0.00 | 0.00 | 88 | 1011.3 |
| 20260902010042 | 67 | 307 | 0.0 | 0.0 | 0.00 | 0.00 | 0.00 | 86 | 1011.1 |